sat.trackr.live / text

‹ back to catalog

STARLINK-34051

NORAD 64022 · 2025-102A

PAYLOAD ACTIVE UNKNOWN

§ Identity

Operator
Country
US
Launch date
2025-05-16
Launch site
AFWTR
Launch vehicle
Mass (kg)
RCS (m²)

Purposes: comms

External: N2YO · Heavens-Above · Gunter

§ Orbital elements

Epoch: 2026-05-24T19:20:29.010912Z

Period
96.11 min
Inclination
70.0000°
Eccentricity
0.0003357
Mean motion
14.98328054 rev/d
Perigee alt
569.7 km
Apogee alt
574.4 km
Semi-major
6,950.2 km
B*
1.1188e-4
RAAN
282.5408°
Arg perigee
270.4774°
Mean anomaly
89.6000°
Rev number
5,735

§ Raw data

STARLINK-340511 64022U 25102A   26144.80589133  .00001242  00000+0  11188-3 0  99982 64022  70.0000 282.5408 0003357 270.4774  89.6000 14.98328054 57358

JSON: /api/v1/satellites/64022 · /tle

For live sub-satellite position, see the globe view (requires WebGL).

§ Visibility from observer

Set your observer location to see the next 7 days of passes ≥ 10°. The values pass through the URL so the page stays shareable.

No JS? Fill the form by hand. The geolocation button needs JavaScript.